Location: Unspecified
(44.4377°N, 88.0525°W)
Time: 20:48:32
(UTC-05:00)

Resurs 1-4 Rocket - Visible Passes

Search period start: 26 April 2015 00:00
Search period end: 06 May 2015 00:00
Orbit: 799 x 815 km, 98.4° (Epoch: 25 April)

Date Brightness Start Highest point End Pass type
(mag) Time Alt. Az. Time Alt. Az. Time Alt. Az.
26 Apr 4.8 02:59:12 10° ENE 03:00:40 11° E 03:02:29 10° ESE visible
26 Apr 2.1 04:36:09 10° NNE 04:41:26 87° E 04:46:44 10° SSW visible
27 Apr 2.8 04:11:45 10° NNE 04:16:55 54° E 04:22:05 10° S visible
28 Apr 3.6 03:47:34 10° NNE 03:52:18 33° E 03:57:03 10° SSE visible
29 Apr 4.3 03:23:45 10° NE 03:27:33 20° E 03:31:29 10° SE visible
29 Apr 2.3 05:02:40 10° N 05:07:50 55° WNW 05:12:58 10° SSW visible
30 Apr 4.7 03:00:49 10° ENE 03:02:41 12° E 03:04:51 10° ESE visible
30 Apr 2.1 04:38:05 10° NNE 04:43:24 89° WNW 04:48:42 10° SSW visible
01 May 2.7 04:13:41 10° NNE 04:18:53 57° E 04:24:05 10° S visible
02 May 3.5 03:49:29 10° NNE 03:54:16 34° E 03:59:05 10° SSE visible
03 May 4.3 03:25:36 10° NE 03:29:31 21° E 03:33:35 10° SE visible
03 May 2.4 05:04:38 10° N 05:09:46 53° WNW 05:14:53 10° SW visible
04 May 4.7 03:02:30 10° ENE 03:04:40 13° E 03:07:09 10° ESE visible
04 May 2.1 04:40:02 10° NNE 04:45:21 85° WNW 04:50:39 10° SSW visible
05 May 2.6 04:15:36 10° NNE 04:20:50 60° E 04:26:04 10° S visible
